Home   Weather   Battambang   Past weeks

Flag for Cambodia Past Weather in Battambang, Cambodia — Yesterday and Last 2 Weeks

Now
77 °F

Clear.


Feels Like: 78 °F
Forecast: 80 / 96 °F
Wind: 2 mph from Southeast

Location: Siemreap

Current Time: Apr 25, 2017 at 2:35:20 am

Latest Report: Apr 25, 2017 at 2:00 am


Visibility: 6 mi

Pressure: 29.80 "Hg

Humidity: 94%

Dew Point: 75 °F

Location of BattambangLocation

Past Weather in Battambang — Graph

°F

Battambang Temperature Yesterday

Maximum temperature yesterday: 97 °F (at 2:00 pm)
Minimum temperature yesterday: 79 °F (at 7:00 am)
Average temperature yesterday: 85 °F

High & Low Weather Summary for the Past Weeks

 TemperatureHumidityPressure
High100 °F (Apr 22, 3:30 pm)100% (Apr 10, 1:30 am)29.92 "Hg (Apr 10, 1:30 am)
Low77 °F (Apr 13, 12:30 pm)27% (Apr 22, 3:30 pm)29.62 "Hg (Apr 10, 5:00 pm)
Average88 °F68%29.76 "Hg
* Reported Apr 10 1:00 am — Apr 25 1:00 am, Battambang, Weather by CustomWeather, © 2017

Note: Actual official high and low records may vary slightly from our data, if they occured in-between our weather recording intervals... More about our weather records

Advertising

Battambang Weather History for the Previous 24 Hours

Scroll right to see more
 ConditionsComfort  
Time TempWeatherWind HumidityBarometerVisibility
1:00 am
Tue, Apr 25
79 °FClear.6 mph89%29.80 "Hg6 mi
12:30 am79 °FClear.2 mph89%29.80 "Hg6 mi
12:00 am79 °FClear.No wind89%29.83 "Hg6 mi
11:30 pm
Mon, Apr 24
79 °FClear.3 mph89%29.83 "Hg6 mi
10:30 pm81 °FClear.3 mph84%29.83 "Hg6 mi
10:00 pm81 °FClear.3 mph84%29.83 "Hg6 mi
9:30 pm81 °FClear.3 mph89%29.80 "Hg6 mi
9:00 pm82 °FClear.5 mph84%29.80 "Hg6 mi
8:30 pm82 °FClear.3 mph84%29.80 "Hg6 mi
8:00 pm82 °FClear.3 mph84%29.77 "Hg6 mi
7:30 pm82 °FPassing clouds.3 mph84%29.77 "Hg6 mi
7:00 pm82 °FPassing clouds.5 mph79%29.74 "Hg6 mi
6:30 pm82 °FPassing clouds.5 mph79%29.74 "Hg6 mi
6:00 pm82 °FPassing clouds.6 mph79%29.71 "Hg6 mi
5:30 pm82 °FScattered clouds.5 mph84%29.71 "Hg6 mi
5:00 pm82 °FScattered clouds.2 mph84%29.68 "Hg6 mi
4:30 pm81 °FScattered clouds.2 mph89%29.71 "Hg6 mi
4:00 pm79 °FScattered clouds.8 mph89%29.71 "Hg6 mi
3:00 pm93 °FThundershowers. Scattered clouds.12 mph47%29.74 "Hg5 mi
2:30 pm95 °FScattered clouds.6 mph44%29.74 "HgN/A
2:00 pm97 °FScattered clouds.5 mph42%29.74 "HgN/A
1:30 pm95 °FScattered clouds.3 mph47%29.77 "HgN/A
1:00 pm95 °FScattered clouds.2 mph47%29.80 "HgN/A
12:30 pm93 °FScattered clouds.5 mph49%29.80 "HgN/A
12:00 pm91 °FScattered clouds.3 mph56%29.83 "HgN/A
11:30 am90 °FScattered clouds.5 mph59%29.83 "HgN/A
11:00 am90 °FScattered clouds.6 mph59%29.86 "HgN/A
10:30 am90 °FScattered clouds.6 mph63%29.86 "HgN/A
9:30 am86 °FScattered clouds.7 mph75%29.86 "HgN/A
9:00 am84 °FScattered clouds.8 mph79%29.86 "HgN/A
8:30 am84 °FPassing clouds.8 mph79%29.83 "HgN/A
8:00 am82 °FPassing clouds.7 mph84%29.83 "HgN/A
7:00 am79 °FPassing clouds.5 mph100%29.80 "HgN/A
2:30 am81 °FPassing clouds.9 mph89%29.74 "Hg5 mi
2:00 am81 °FPassing clouds.10 mph89%29.74 "Hg5 mi
Weather by CustomWeather, © 2017

See weather overviewHow to use our weather pages